Santa Rosa, CA

1:09 PM PST on December 11, 2017 (GMT -0800)
Sonoma County

Weather History for KSTS - May, 2014

Change the Weather History Date:

Sunday, May 25, 2014

  Actual Average Record
Temperature  
Mean Temperature 73 °F 62 °F  
Max Temperature 96 °F 76 °F 96 °F (2014)
Min Temperature 49 °F 48 °F 41 °F (2008)
Degree Days  
Heating Degree Days 0    
Month to date heating degree days 62  
Since 1 July heating degree days 2473  
Cooling Degree Days 8    
Month to date cooling degree days 34  
Year to date cooling degree days 43  
Growing Degree Days 22 (Base 50)    
Moisture  
Dew Point 44 °F    
Average Humidity 51    
Maximum Humidity 86    
Minimum Humidity 15    
Precipitation  
Precipitation 0.00 in 0.02 in 0.51 in (2010)
Month to date precipitation 0.02 1.19  
Year to date precipitation 12.57 21.71  
Since 1 July precipitation 14.59  
Sea Level Pressure  
Sea Level Pressure 29.89 in    
Wind  
Wind Speed 8 mph (NW)    
Max Wind Speed 23 mph    
Max Gust Speed 29 mph    
Visibility 10 miles    
Events Rain    
T = Trace of Precipitation, MM = Missing Value Source: NWS Daily Summary

Daily Weather History Graph

Daily Weather History Graph

Search for Another Location

Airport or City:

Trip Planner

Search our weather history database for the weather conditions in past years. The results will help you decide how hot, cold, wet, or windy it might be!

Date:

Astronomy

May. 25, 2014 Rise Set
Actual Time 5:52 AM PDT 8:24 PM PDT
Civil Twilight 5:21 AM PDT 8:55 PM PDT
Nautical Twilight 4:43 AM PDT 9:33 PM PDT
Astronomical Twilight 4:01 AM PDT 10:15 PM PDT
Moon 3:57 AM PDT (5/25) 5:33 PM PDT (5/25)
Length of Visible Light 15h 33m
Length of Day
14h 32m
Waning Crescent, 10% of the Moon is Illuminated
May 25
Waning Crescent
May 28
New
Jun 5
First Quarter
Jun 12
Full
Jun 19
Last Quarter

Hourly Weather History & Observations

Time (PDT) Temp. Dew Point Humidity Pressure Visibility Wind Dir Wind Speed Gust Speed Precip Events Conditions
12:53 AM 54.0 °F 48.0 °F 80% 29.91 in 10.0 mi SSE 3.5 mph - N/A   Clear
1:53 AM 53.1 °F 46.9 °F 80% 29.91 in 10.0 mi South 3.5 mph - N/A   Clear
2:53 AM 52.0 °F 46.9 °F 83% 29.91 in 9.0 mi Calm Calm - N/A   Clear
3:53 AM 51.1 °F 46.9 °F 86% 29.90 in 10.0 mi Calm Calm - N/A   Clear
4:53 AM 51.1 °F 46.0 °F 83% 29.90 in 10.0 mi Calm Calm - N/A   Clear
5:53 AM 50.0 °F 46.0 °F 86% 29.91 in 10.0 mi Calm Calm - N/A   Clear
6:53 AM 52.0 °F 46.9 °F 83% 29.93 in 10.0 mi Calm Calm - N/A   Scattered Clouds
8:53 AM 64.9 °F 46.9 °F 52% 29.93 in 10.0 mi Calm Calm - N/A   Scattered Clouds
9:53 AM 72.0 °F 46.9 °F 41% 29.93 in 10.0 mi South 5.8 mph - N/A   Scattered Clouds
10:53 AM 77.0 °F 48.0 °F 36% 29.92 in 10.0 mi South 8.1 mph - N/A   Clear
11:53 AM 82.9 °F 50.0 °F 32% 29.91 in 10.0 mi South 5.8 mph - N/A   Scattered Clouds
12:53 PM 87.1 °F 48.9 °F 27% 29.89 in 10.0 mi Variable 5.8 mph - N/A   Scattered Clouds
1:29 PM 91.9 °F 46.0 °F 21% 29.90 in 10.0 mi WNW 8.1 mph 16.1 mph N/A   Scattered Clouds
1:53 PM 91.9 °F 42.1 °F 18% 29.88 in 10.0 mi NW 15.0 mph - N/A   Scattered Clouds
2:53 PM 93.9 °F 42.1 °F 17% 29.86 in 10.0 mi NW 9.2 mph - N/A   Scattered Clouds
3:53 PM 95.0 °F 41.0 °F 15% 29.85 in 10.0 mi North 13.8 mph - N/A   Scattered Clouds
4:53 PM 91.9 °F 41.0 °F 17% 29.84 in 10.0 mi NNW 16.1 mph 24.2 mph N/A   Scattered Clouds
5:53 PM 88.0 °F 39.9 °F 18% 29.84 in 10.0 mi NNW 19.6 mph 25.3 mph N/A   Scattered Clouds
6:53 PM 84.0 °F 39.9 °F 21% 29.85 in 10.0 mi NW 15.0 mph 27.6 mph 0.00 in   Clear
7:53 PM 79.0 °F 39.0 °F 24% 29.87 in 10.0 mi NW 13.8 mph 21.9 mph 0.00 in Rain Light Rain
8:53 PM 75.9 °F 39.0 °F 26% 29.88 in 10.0 mi NW 18.4 mph 24.2 mph 0.00 in Rain Light Rain
9:53 PM 73.0 °F 39.0 °F 29% 29.90 in 10.0 mi NW 13.8 mph - 0.00 in Rain Light Rain
10:53 PM 70.0 °F 39.9 °F 33% 29.91 in 10.0 mi North 11.5 mph - 0.00 in Rain Light Rain
11:53 PM 66.0 °F 42.1 °F 42% 29.91 in 10.0 mi North 6.9 mph - 0.00 in Rain Light Rain